FW2899 Weather Reports


time (UTC)temp
C
wind
direction
speed
KPH
gust
KPH
rain 1hr
cm
rain 24hr
cm
rain mn
cm
humidity
%
barometer
mb
20260503004016 16 203 1.6 4.8 0.00 0.00 0.00 35 1011.7
20260503003016 16 180 1.6 3.2 0.00 0.00 0.00 35 1011.7
20260503002016 16 180 1.6 4.8 0.00 0.00 0.00 34 1011.7
20260503001016 16 270 3.2 9.7 0.00 0.00 0.00 34 1011.7
20260503000016 16 248 3.2 8.0 0.00 0.00 0.00 34 1011.7
20260502235016 16 248 3.2 9.7 0.00 0.00 0.00 35 1011.9
20260502234016 16 158 1.6 4.8 0.00 0.00 0.00 36 1011.7
20260502233016 16 248 3.2 6.4 0.00 0.00 0.00 34 1011.8
20260502232036 16 225 3.2 4.8 0.00 0.00 0.00 34 1012.0
20260502231036 16 270 4.8 14.5 0.00 0.00 0.00 34 1012.2
20260502230016 16 248 4.8 12.9 0.00 0.00 0.00 33 1012.4
20260502225016 17 248 4.8 12.9 0.00 0.00 0.00 33 1012.3
20260502224016 16 248 6.4 16.1 0.00 0.00 0.00 34 1012.4
20260502223016 17 270 6.4 12.9 0.00 0.00 0.00 34 1012.5
20260502222016 17 270 6.4 12.9 0.00 0.00 0.00 34 1012.5
20260502221016 16 248 3.2 6.4 0.00 0.00 0.00 34 1012.6
20260502220016 17 270 4.8 16.1 0.00 0.00 0.00 32 1012.7
20260502215016 16 270 4.8 11.3 0.00 0.00 0.00 33 1013.0
20260502214016 16 248 4.8 11.3 0.00 0.00 0.00 33 1013.2
20260502213016 16 248 6.4 12.9 0.00 0.00 0.00 34 1013.4
20260502212016 16 293 3.2 9.7 0.00 0.00 0.00 34 1013.5
20260502211016 16 270 4.8 9.7 0.00 0.00 0.00 36 1013.7
20260502210015 15 248 4.8 14.5 0.00 0.00 0.00 33 1013.8
20260502205016 16 293 3.2 8.0 0.00 0.00 0.00 33 1014.0
20260502204016 16 248 3.2 12.9 0.00 0.00 0.00 32 1014.1
20260502203016 16 248 8.0 16.1 0.00 0.00 0.00 30 1014.4
20260502202015 16 270 4.8 12.9 0.00 0.00 0.00 33 1014.6
20260502201035 16 225 4.8 11.3 0.00 0.00 0.00 33 1014.7
20260502200016 15 248 4.8 11.3 0.00 0.00 0.00 35 1014.8
20260502195035 15 180 4.8 16.1 0.00 0.00 0.00 34 1015.0
20260502194035 15 270 4.8 12.9 0.00 0.00 0.00 35 1015.0
20260502193016 15 248 4.8 9.7 0.00 0.00 0.00 32 1015.2
20260502192035 15 270 4.8 11.3 0.00 0.00 0.00 38 1015.4
20260502191015 15 248 4.8 14.5 0.00 0.00 0.00 34 1015.7
20260502190015 15 225 4.8 14.5 0.00 0.00 0.00 33 1015.8
20260502185015 15 203 4.8 11.3 0.00 0.00 0.00 35 1015.9
20260502184016 14 270 6.4 14.5 0.00 0.00 0.00 35 1016.1
20260502183016 14 270 6.4 14.5 0.00 0.00 0.00 38 1016.3
20260502182035 14 270 4.8 14.5 0.00 0.00 0.00 36 1016.4
20260502181015 13 225 6.4 16.1 0.00 0.00 0.00 35 1016.4
20260502164017 12 270 4.8 11.3 0.00 0.00 0.00 37 1017.7
20260502163017 13 248 3.2 9.7 0.00 0.00 0.00 41 1017.8
20260502162037 12 270 6.4 14.5 0.00 0.00 0.00 44 1018.0
20260502161037 12 270 6.4 16.1 0.00 0.00 0.00 37 1018.0
20260502152017 11 315 6.4 14.5 0.00 0.00 0.00 38 1018.2
20260502151017 11 270 4.8 12.9 0.00 0.00 0.00 42 1018.2
20260502123017 3 203 1.6 3.2 0.00 0.00 0.00 61 1018.6
20260502122017 3 180 1.6 8.0 0.00 0.00 0.00 62 1018.5
20260502121017 3 180 1.6 3.2 0.00 0.00 0.00 63 1018.4
20260502115017 2 0.0 3.2 0.00 0.00 0.00 65 1018.1
20260502114037 1 0.0 3.2 0.00 0.00 0.00 67 1018.0
20260502113017 1 0.0 1.6 0.00 0.00 0.00 70 1017.9
20260502112017 0 0.0 1.6 0.00 0.00 0.00 73 1017.7
20260502111017 0 0.0 0.0 0.00 0.00 0.00 74 1017.7
20260502110017 0 0.0 0.0 0.00 0.00 0.00 72 1017.9
20260502105017 1 0.0 1.6 0.00 0.00 0.00 70 1017.7
20260502104037 1 0.0 3.2 0.00 0.00 0.00 70 1018.0
20260502103017 0 0.0 0.0 0.00 0.00 0.00 71 1017.8
20260502102017 0 0.0 1.6 0.00 0.00 0.00 74 1017.9
20260502101017 0 0.0 1.6 0.00 0.00 0.00 73 1017.8
20260502091017 1 0.0 0.0 0.00 0.00 0.00 68 1018.0
20260502071036 2 0.0 0.0 0.00 0.00 0.00 64 1018.0
20260502070016 2 0.0 0.0 0.00 0.00 0.00 64 1018.1
20260502065036 2 0.0 0.0 0.00 0.00 0.00 64 1018.2
20260502064017 2 0.0 1.6 0.00 0.00 0.00 64 1018.3
20260502063016 2 0.0 0.0 0.00 0.00 0.00 65 1018.3
20260502062016 2 0.0 0.0 0.00 0.00 0.00 64 1018.3
20260502061117 2 0.0 1.6 0.00 0.00 0.00 64 1018.1
20260502060517 2 0.0 1.6 0.00 0.00 0.00 63 1018.3
20260502055516 3 0.0 0.0 0.00 0.00 0.00 63 1018.3
20260502054516 3 0.0 0.0 0.00 0.00 0.00 61 1018.3
20260502053516 3 0.0 0.0 0.00 0.00 0.00 60 1018.4
20260502052516 3 0.0 0.0 0.00 0.00 0.00 60 1018.3
20260502051516 3 0.0 0.0 0.00 0.00 0.00 60 1018.3
20260502050516 3 0.0 0.0 0.00 0.00 0.00 59 1018.3
20260502045516 3 0.0 0.0 0.00 0.00 0.00 58 1018.2
20260502044516 4 0.0 0.0 0.00 0.00 0.00 57 1018.2
20260502043516 4 0.0 0.0 0.00 0.00 0.00 55 1018.3
20260502042536 5 0.0 0.0 0.00 0.00 0.00 53 1018.2
20260502041516 5 0.0 0.0 0.00 0.00 0.00 52 1018.2
20260502040516 5 0.0 0.0 0.00 0.00 0.00 50 1018.2
20260502035516 5 0.0 0.0 0.00 0.00 0.00 51 1018.3
20260502034536 5 0.0 0.0 0.00 0.00 0.00 49 1018.3
20260502033536 6 0.0 0.0 0.00 0.00 0.00 48 1018.3
20260502032536 6 0.0 0.0 0.00 0.00 0.00 48 1018.2
20260502031516 6 0.0 1.6 0.00 0.00 0.00 47 1018.2
20260502030516 6 0.0 0.0 0.00 0.00 0.00 48 1018.2
20260502025536 6 0.0 0.0 0.00 0.00 0.00 47 1018.0
20260502024536 6 0.0 0.0 0.00 0.00 0.00 47 1017.9
20260502023516 6 0.0 0.0 0.00 0.00 0.00 49 1018.0
20260502022516 6 0.0 0.0 0.00 0.00 0.00 47 1017.9
20260502021516 6 0.0 0.0 0.00 0.00 0.00 49 1017.9
20260502020516 6 0.0 0.0 0.00 0.00 0.00 48 1017.8
20260502015516 7 0.0 0.0 0.00 0.00 0.00 47 1017.7
20260502014516 7 0.0 0.0 0.00 0.00 0.00 46 1017.7
20260502013516 7 0.0 0.0 0.00 0.00 0.00 46 1017.5
20260502012516 8 0.0 3.2 0.00 0.00 0.00 42 1017.5
20260502011516 8 0.0 1.6 0.00 0.00 0.00 41 1017.4
20260502010516 8 0.0 1.6 0.00 0.00 0.00 42 1017.3
20260502005516 8 0 1.6 3.2 0.00 0.00 0.00 43 1017.2
20260502004516 8 0 1.6 4.8 0.00 0.00 0.00 43 1017.1